Regional Weather Roundup
Issued by NWS Upton, NY

Home | Current Version | Previous Version | Text Only | Print | Product List | Glossary On
Versions: 1 2 3 4 5 6 7 8 9 10 11 12 13 14 15 16 17 18 19 20 21 22 23 24 25 26 27 28 29 30 31 32 33 34 35 36 37 38 39 40 41 42 43 44 45 46 47 48 49 50
541
ASUS41 KOKX 250108
RWROKX

REGIONAL WEATHER ROUNDUP
NATIONAL WEATHER SERVICE NEW YORK NY
800 PM EST TUE JAN 24 2017

NOTE: "FAIR" INDICATES FEW OR NO CLOUDS BELOW 12,000 FEET WITH NO
SIGNIFICANT WEATHER AND/OR OBSTRUCTIONS TO VISIBILITY.

NYZ071-072-176-178-NJZ106-104-250200-
NEW YORK CITY METRO AREA

CITY           SKY/WX    TMP DP  RH WIND       PRES   REMARKS
Central Park   LGT RAIN  37  34  89 NW7       29.43R WCI  32
Wall St Helipt LGT RAIN  40  36  86 CALM      29.43R
LaGuardia APRT LGT RAIN  40  35  83 NW17G23   29.41R WCI  31
Kennedy INTL   LGT RAIN  40  37  89 N13G25    29.42R WCI  32
Breezy Point     N/A     37 N/A N/A NW17G26     N/A  WCI  28
Newark/Liberty LGT RAIN  41  33  73 NW17G29   29.43R
Teterboro      RAIN      39  34  82 N10G22    29.42R WCI  32
$$

NYZ177-179-078>081-250200-
LONG ISLAND NEW YORK

CITY           SKY/WX    TMP DP  RH WIND       PRES   REMARKS
Jones Beach      N/A     37 N/A N/A NW23G30     N/A  WCI  26
Matinecock PT  NOT AVBL
Farmingdale    CLOUDY    38  35  89 N16G22    29.37S WCI  29
MacArthur/ISP  LGT RAIN  38  37  97 NW20      29.33F WCI  28
Shirley        CLOUDY    37  36  96 MISG      29.33R FOG
Westhampton    LGT RAIN  37  35  92 N17G31    29.32R FOG     WCI  27
Southampton    NOT AVBL
Bridgehampton  NOT AVBL
East Hampton   DRIZZLE   36  34  92 N15G24    29.28S WCI  27
Montauk          N/A     38  37  97 NW15G22   29.28R WCI  29
$$

NYZ052-065-067-250200-
HUDSON VALLEY

CITY           SKY/WX    TMP DP  RH WIND       PRES   REMARKS
White Plains   LGT RAIN  36  33  89 NW21G30   29.37S WCI  25
Newburgh       NOT AVBL
Montgomery     LGT RAIN  35  33  92 N3        29.44R
Poughkeepsie   MIX PCPN  33  32  96 N8        29.45R WCI  26
Albany         LGT SNOW  34  31  88 N6        29.49S FOG     WCI  29
$$

NJZ001-105-106-008-010-013-015-019>022-104-250200-
NEW JERSEY

CITY           SKY/WX    TMP DP  RH WIND       PRES   REMARKS
Newark/Liberty LGT RAIN  41  33  73 NW17G29   29.43R
Teterboro      RAIN      39  34  82 N10G22    29.42R WCI  32
Caldwell       LGT RAIN  38  33  82 NW14G24   29.44R WCI  30
Somerville     LGT RAIN  39  33  79 NW9       29.46R WCI  33
Linden         NOT AVBL
Sussex         LGT SNOW  35  33  92 CALM      29.46R FOG
Andover          N/A     35  32  88 VRB6      29.47R WCI  30
Trenton        CLOUDY    40  33  76 NW13G21   29.48R WCI  32
Millville      CLOUDY    42  34  73 NW16G28   29.52R
Atlantic City  MOCLDY    40  34  79 NW17      29.47R WCI  31
Wrightstown    CLOUDY    39  34  83 NW16      29.45R WCI  30
Toms River     CLOUDY    38  36  92 NW18      29.45R WCI  28
Belmar         LGT RAIN  38  35  89 NW17G25   29.44R WCI  28
$$

PAZ047>061-062-071-250200-
EASTERN PENNSYLVANIA

CITY           SKY/WX    TMP DP  RH WIND       PRES   REMARKS
Philadelphia   CLOUDY    42  31  64 NW18G25   29.53R
Allentown      MOCLDY    39  28  64 NW15      29.52R WCI  31
Scranton       CLOUDY    34  28  79 N13       29.55R WCI  25
$$

CTZ002-004>006-009-010-012-RIZ004-006-007-MAZ004-011-015-250200-
SOUTHERN NEW ENGLAND
 IN CT

CITY           SKY/WX    TMP DP  RH WIND       PRES   REMARKS
Bradley INTL   RAIN      35  33  92 N9        29.37R FOG     WCI  28
Hartford       LGT SNOW  36  33  89 N10       29.37R FOG     WCI  28
Danbury        CLOUDY    36  32  85 N7        29.40R WCI  30
Wtrbury/Oxford CLOUDY    36  30  80 N14       29.36S WCI  27
Bridgeport     LGT RAIN  39  34  82 N16G25    29.35S WCI  30
Meriden        LGT RAIN  38  33  82 NW13      29.36R WCI  30
New Haven      CLOUDY    39  34  82 N15G25    29.33S WCI  31
Chester        MIX PCPN  36  34  93 N18G31    29.30R WCI  25
Groton         LGT RAIN  37  37 100 N18G28    29.26R WCI  27
Wilimantic     LGT RAIN  38  35  89 N8        29.32S WCI  32

 IN RI

CITY           SKY/WX    TMP DP  RH WIND       PRES   REMARKS
Providence     CLOUDY    37  33  85 N15G23    29.27R WCI  28
Block Island   NOT AVBL
Westerly       LGT SNOW  38  34  85 N17G26    29.25S FOG     WCI  28
 IN MA

CITY           SKY/WX    TMP DP  RH WIND       PRES   REMARKS
Boston         DRIZZLE   35  34  96 N14       29.29F WCI  26
Worcester      CLOUDY    32  29  88 N16G24    29.29S WCI  21
Westfield      HVY RAIN  35  34  96 N8        29.37S FOG     WCI  29
Provincetown   LGT RAIN  45  44  97 N15       29.19S FOG
Nantucket      FOG       49  49 100 CALM      29.14S VSB 3/4
$$

ANZ330-335-338-340-345-350-353-355-250200-
COASTAL MARINE OBSERVATIONS


STATION/POSITION TIME  SKY/WX   TEMP    WIND        PRES    VSBY  WAVE
                                AIR SEA DIR/SP/G                  HT/PER
                 (UTC)          (F)     (DEG/KT/KT) (MB)    (MI)  (FT/S)
NY HARB ENTRANCE 2350            41 42  320/ 21/ 25  994.3          6/11
20 S FIRE ISLAND 2350            41 47  330/ 27/ 33  992.4         10/11
GREAT SOUTH BAY  NOT AVBL
23 SSW MONTAUK P 2350            40 46  320/ 21/ 27  990.2          9/11
15 E BARNEGAT LI 0030               44                N/A           8/11
HUDSON CANYON    2350            42 51               990.8         14/ 7
KINGS POINT      NOT AVBL
EXECUTION ROCKS  0030            38     320/ 14/ 17   N/A
CENTRAL LI SOUND 0030            39     340/ 17/ 23   N/A           2/ 3
EASTERN LI SOUND NOT AVBL
ROBBINS REEF     0030            40     320/ 19/ 26  995.9
$$


>>>>>>>>>>>>>>>>>>>>>>>>>>>> KEY <<<<<<<<<<<<<<<<<<<<<<<<<<<
>                                                          <
>     SKY/WX - Sky Condition/Present Weather               <
>     TMP    - Temperature in Fahrenheit                   <
>     DP     - Dew Point in Fahrenheit                     <
>     RH     - Relative Humidity in Percent                <
>     WIND   - Direction (from) and Speed in MPH           <
>     PRES   - Mean Sea Level Pressure (inches of Hg)      <
>     WCI    - Wind Chill Index                            <
>     VSB    - VISIBILITY IN MILES                         <
>     HX     - HEAT INDEX                                  <
>     TC     - TEMPERATURE IN CELSIUS                      <
>     VRB    - VARIABLE WIND DIRECTION                     <
>                                                          <
>>>>>>>>>>>>>>>>>>>>>>>>>>>> KEY <<<<<<<<<<<<<<<<<<<<<<<<<<<




USA.gov is the U.S. government's official web portal to all federal, state and local government web resources and services.